User: anonymous   Login
Location: Darlington Observatory
(36.4817°N, 105.8156°W)
Time: 04:21:39
(UTC-06:00)
Language:

Cosmos 2278 Rocket - Orbit

View from above orbital plane
View from above orbital plane
View from above satellite
View from above satellite

Ground track
Ground track

The orbit data is extracted from the following two-line orbital elements,

1 23088U 94023B   18113.89952568 +.00000261 +00000-0 +16049-3 0  9997
2 23088 071.0016 349.9153 0004210 319.3870 040.6938 14.14667788239219
Epoch (UTC): 23 April 2018 21:35:19
Eccentricity: 0.0004210
inclination: 71.0016°
perigee height: 840 km
apogee height: 846 km
right ascension of ascending node: 349.9153°
argument of perigee: 319.3870°
revolutions per day: 14.14667788
mean anomaly at epoch: 40.6938°
orbit number at epoch: 23921

The dashed part of the orbit path shows where the satellite is in the earth's shadow,  

DLR